Forside
METAR-TAF:

METAR-TAF

Lufthavne :

Chicago Executive Airport

Wheeling / Prospect Heights, Illinois, USA

Breddekreds: 42-07-15N, længdekreds: 087-54-17W, højde: 197 m

Aktuelle vejr

Denne rapport blev lavet for 47 minutter siden, kl. 21:52 UTC
Vind 10 kt fra østnordøst
Temperatur 13°C
Fugtighed 35%
Tryk 1021 hPa
Sigt: 16.1 km
skyfri

METAR: KPWK 052152Z 06010KT 10SM CLR 13/M02 A3015 RMK AO2 SLP212 T01281017

Tid: 17:39 (22:39 UTC)


TAF: fraværende

Vejrobservationer og prognoser fra mere end 4000 lufthavne (METAR og TAF).

De gule og røde prikker repræsenterer de meteorologiske stationer.

Flyt musen over at se navnet på stationen.

Så klik over at se vejr observationer og prognoser.

At skifte det kort: Klik på de grønne knapper med et sort kors for at zoome ind; på den grønne knap med en bindestreg for at zoome ud; eller på de grønne pile for tilstødende kort.


METAR-TAF: